Location: Toronto
(43.6672°N, 79.4170°W)
Time: 22:54:31
(UTC-04:00)

Daily predictions for brighter satellites

Satellite Brightness Start Highest point End
(mag) Time Altitude Azimuth Time Altitude Azimuth Time Altitude Azimuth
COSMOS 2487 4.0 21:11:44 10° N 21:14:41 23° ENE 21:17:36 10° ESE
H-2A R/B 3.6 21:12:09 10° S 21:15:45 50° W 21:19:24 10° NNW
CZ-4 DEB 2.7 21:12:46 10° SSE 21:15:56 90° SE 21:19:08 10° NNW
Cosmos 1624 Rocket 4.1 21:11:05 10° SSW 21:16:22 90° SE 21:21:44 10° NNE
Cosmos 1975 Rocket 4.4 21:15:55 10° NNE 21:19:22 23° ENE 21:22:47 10° SE
Coronas F rocket 2.0 21:18:18 10° SSW 21:20:54 55° W 21:23:31 10° N
Cosmos 1939 Rocket 3.0 21:19:05 10° SSE 21:22:51 53° ENE 21:26:43 10° N
ATLAS 5 CENTAUR R/B 3.2 21:21:08 10° NW 21:26:57 51° WSW 21:33:08 10° SSE
ARGOS 4.5 21:24:15 10° ESE 21:28:26 24° ENE 21:32:38 10° N
Cosmos 407 Rocket 3.6 21:23:24 10° NNW 21:28:42 85° ENE 21:34:02 10° SSE
Meteor 2-6 Rocket 4.4 21:23:20 10° N 21:29:20 84° E 21:35:10 10° S
Cosmos 2084 3.7 21:26:13 10° S 21:29:45 35° ESE 21:33:16 10° NE
ERS-1 Rocket 3.0 21:24:57 10° SSE 21:29:59 88° ENE 21:35:04 10° NNW
Cosmos 1908 Rocket 3.9 21:26:18 10° SSE 21:30:32 47° E 21:34:48 10° NNE
Cosmos 1378 Rocket 4.0 21:27:25 10° N 21:31:34 44° ENE 21:35:43 10° SSE
Cosmos 1733 Rocket 3.4 21:28:13 10° SSW 21:32:37 73° W 21:37:00 10° N
Cosmos 1140 Rocket 4.2 21:29:47 10° N 21:34:35 38° ENE 21:39:06 11° SE
deb Chang Zheng 4 3.8 21:32:06 10° NNE 21:36:27 54° E 21:40:47 10° S
H-2A R/B 4.0 21:33:35 10° E 21:36:38 16° ENE 21:39:40 10° NNE
Cosmos 1452 Rocket 3.6 21:35:21 10° S 21:40:30 59° ESE 21:45:42 10° NNE
COSMOS 2406 4.2 21:35:35 10° NW 21:41:01 45° WSW 21:46:25 10° S
Cosmos 2154 Rocket 4.0 21:37:23 10° S 21:43:31 66° E 21:49:40 10° NNE
USA 245 4.4 21:44:18 14° ESE 21:46:39 27° ENE 21:50:07 10° N
YAOGAN 6 3.4 21:44:08 14° SE 21:46:44 34° ENE 21:49:57 10° N
Cosmos 1833 Rocket 4.1 21:43:05 10° N 21:47:41 25° NE 21:52:00 11° ESE
CZ-4B R/B 4.4 21:43:38 10° NE 21:47:47 26° E 21:51:12 13° SSE
Cosmos 1242 Rocket 3.6 21:44:49 10° N 21:48:07 31° ENE 21:50:30 16° SE
Cosmos 1408 2.8 21:44:44 10° S 21:48:17 50° E 21:51:50 10° NNE
Cosmos 2278 Rocket 2.3 21:45:15 10° S 21:50:46 55° ESE 21:56:18 10° NNE
SPOT 1/Viking Rocket 4.2 21:47:24 13° SE 21:51:38 40° ENE 21:56:28 10° N
Cosmos 1825 2.2 21:48:53 10° S 21:52:37 59° E 21:56:25 10° NNE
CZ-4 SHROUD 3.7 21:50:45 17° SE 21:52:52 42° ENE 21:55:50 10° N
Cosmos 1844 Rocket 3.0 21:48:13 10° SSW 21:53:51 72° WNW 21:59:30 10° NNE
Intercosmos 25 4.0 21:52:53 16° SE 21:55:00 27° E 21:57:46 10° NNE
Cosmos 1844 3.8 21:49:52 10° SSW 21:55:38 89° ESE 22:01:29 10° NNE
PSLV R/B 3.3 21:55:39 18° SSE 21:57:35 53° ENE 22:00:29 10° N
MetOp-A 4.2 21:52:40 12° SSE 21:57:40 67° ENE 22:03:00 10° N
H-2A R/B 2.3 21:55:54 10° S 22:00:11 69° WSW 22:04:25 10° NNW
Cosmos 1184 Rocket 2.8 21:59:22 10° S 22:02:39 62° E 22:05:59 10° NNE
SL-8 R/B 4.3 21:59:17 10° W 22:04:03 58° NNW 22:08:49 10° ENE
Cosmos 2082 Rocket 2.9 22:03:50 10° NNW 22:09:16 42° ENE 22:13:01 19° ESE
EO 1 Delta rocket 4.4 22:03:51 10° N 22:10:11 79° WNW 22:15:14 10° SSW
Cosmos 1850 Rocket 4.2 22:06:33 10° NNW 22:11:49 60° ENE 22:15:25 20° SE
Cosmos 1238 Rocket 2.8 22:12:13 10° NNW 22:15:25 63° W 22:18:32 14° S
Terra 3.2 22:13:28 17° ESE 22:15:50 24° ENE 22:19:39 10° NNE
ISS -3.5 22:13:16 10° SW 22:16:31 79° SE 22:19:47 10° ENE
Cosmos 1954 Rocket 4.4 22:13:34 10° NNW 22:18:42 62° WSW 22:23:04 14° S
SL-08 RB Rocket 4.1 22:17:17 23° SE 22:19:57 50° ENE 22:24:27 10° N
Cosmos 1862 4.1 22:16:37 10° SSW 22:20:37 54° WNW 22:24:38 10° N
SPOT 5 3.4 22:15:47 11° S 22:20:48 67° WSW 22:26:10 10° NNW
USA 229 DEB 4.1 22:17:29 10° NNW 22:24:30 58° NE 22:29:26 21° ESE
USA 229 4.1 22:17:36 10° NNW 22:24:36 58° NE 22:29:32 21° ESE
COS B Rocket 4.4 22:21:18 10° NNW 22:25:13 43° W 22:28:44 10° SSW
Cosmos 2297 3.8 22:20:19 10° S 22:25:49 54° ESE 22:31:25 10° NNE
Okean 3 4.1 22:24:45 10° NNW 22:28:56 54° W 22:32:25 14° SSW
Okean 2 Rocket 3.1 22:25:23 10° S 22:29:48 81° W 22:34:14 10° N
Cosmos 1741 Rocket 3.9 22:26:57 10° NNW 22:32:13 86° ENE 22:35:16 26° SSE
NOAA 11 4.2 22:30:25 22° SSE 22:34:03 81° ENE 22:39:36 10° NNW
Gbstr 26 Del rocket 4.3 22:31:47 10° NW 22:36:46 40° NNE 22:40:13 14° E
Cosmos 2218 Rocket 4.0 22:33:57 17° S 22:39:03 70° E 22:45:26 10° NNE
ASTEX 1 4.5 22:40:16 10° NNE 22:44:27 27° E 22:45:20 25° ESE
CZ-4C R/B 3.5 22:43:58 39° SE 22:45:09 56° ENE 22:49:12 10° N
BREEZE-M DEB (TANK) 3.3 22:35:41 10° WNW 22:46:41 59° SW 22:48:20 34° SSE
COSMOS 2487 4.5 22:47:17 10° NW 22:50:13 23° W 22:52:14 15° SW
BREEZE-M DEB (TANK) 3.5 22:48:32 10° WNW 22:50:26 26° N 22:53:32 10° ENE
Cosmos 1727 Rocket 4.0 22:46:40 10° N 22:52:50 72° E 22:56:01 30° SSE
DELTA 2 DEB (DPAF) 4.1 22:51:58 38° SSE 22:53:36 74° ENE 22:58:05 10° N
AVUM R/B 3.8 22:50:22 10° NNW 22:53:48 47° ENE 22:54:14 44° E
Cosmos 1959 Rocket 4.4 22:50:04 17° S 22:54:52 89° W 23:01:01 10° N
APEX 3.9 22:51:52 10° SW 22:55:48 69° WNW 23:01:02 10° NNE
DNEPR-1 R/B 4.5 22:51:31 10° NW 22:56:38 47° WSW 22:58:32 30° S
Cosmos 2369 Rocket 4.1 23:00:27 13° E 23:00:27 13° E 23:02:06 10° ENE
CARTOSAT-1 3.6 22:58:42 44° SE 22:59:51 63° ENE 23:04:08 10° N
Meteor 2-19 Rocket 4.4 23:00:07 30° SSE 23:03:15 68° E 23:09:19 10° NNE
Cosmos 614 Rocket 4.5 23:01:24 10° NNW 23:06:20 51° WSW 23:08:37 29° SSW
ARGOS 3.8 23:05:13 23° SSW 23:08:21 50° W 23:13:33 10° NNW
Cosmos 1536 Rocket 3.6 23:05:47 10° NNW 23:10:17 75° W 23:11:40 43° S
CZ-4 R/B 4.1 23:07:15 10° N 23:11:54 64° WNW 23:14:47 22° SSW
Meteor 2-8 Rocket 4.5 23:06:32 10° N 23:12:43 82° W 23:15:42 33° S
NOSS 3-1 (C) 4.5 23:05:47 10° NNW 23:13:00 52° NE 23:17:47 25° ESE
Meteor 1-20 Rocket 4.1 23:11:44 36° S 23:14:05 75° E 23:19:36 10° NNE
H-2A R/B 2.1 23:13:14 38° S 23:15:23 82° WSW 23:20:44 10° NNW
Cosmos 1339 Rocket 4.4 23:11:05 10° N 23:17:17 90° W 23:20:00 36° S
Okean 1 3.2 23:18:10 10° N 23:22:15 83° E 23:22:36 73° SE
USA 234 3.2 23:17:25 10° NE 23:23:51 58° SE 23:30:15 10° SSW
Meteor 1-25 Rocket 4.4 23:23:30 28° SSW 23:26:44 75° W 23:32:35 10° N
Cosmos 1821 Rocket 4.4 23:27:03 39° ESE 23:28:28 44° E 23:34:20 10° NNE
Cosmos 1833 Rocket 3.0 23:26:28 10° NNW 23:31:58 56° WSW 23:33:42 40° SSW
Cosmos 2278 Rocket 4.3 23:30:30 10° WSW 23:35:11 26° NW 23:39:54 10° N
Cosmos 1934 Rocket 4.3 23:40:23 42° ESE 23:41:23 46° E 23:47:06 10° NNE
Cosmos 2123 Rocket 4.5 23:38:13 10° N 23:44:13 45° ENE 23:45:41 39° ESE
Cosmos 1302 Rocket 4.0 23:43:57 60° SE 23:44:25 63° ESE 23:49:39 10° NNE
IGS 5A 4.2 23:47:10 42° WSW 23:47:34 43° W 23:51:33 10° NNW
Cosmos 1602 4.3 23:49:20 51° NE 23:49:20 51° NE 23:52:28 10° NNE
Cosmos 1025 Rocket 3.3 23:44:27 10° N 23:48:39 55° ENE 23:48:39 55° ENE
Meteor 2-21 4.4 23:49:43 52° SSE 23:51:14 73° E 23:57:26 10° NNE
Cosmos 1812 3.9 23:47:44 10° NNW 23:51:17 35° W 23:51:28 35° W
Cosmos 2082 Rocket 3.5 23:48:16 10° NW 23:53:10 30° WSW 23:54:52 26° SW
ISS -1.0 23:50:26 10° WNW 23:53:14 26° NNW 23:56:02 10° NE
Terra 2.7 23:52:21 35° SW 23:53:21 39° W 23:57:50 10° NNW
ALOS 2 4.0 23:53:52 26° ENE 23:53:58 26° ENE 23:57:37 10° N
